TimeCST,TemperatureF,Dew PointF,Humidity,Sea Level PressureIn,VisibilityMPH,Wind Direction,Wind SpeedMPH,Gust SpeedMPH,PrecipitationIn,Events,Conditions,WindDirDegrees,DateUTC
12:15 AM,56.5,54.9,94,30.04,10.0,SE,5.8,-,N/A,,Clear,140,2013-01-11 06:15:00
12:35 AM,55.9,54.7,96,30.03,10.0,SE,8.1,-,N/A,,Clear,140,2013-01-11 06:35:00
12:55 AM,55.6,54.5,96,30.03,10.0,SE,6.9,-,N/A,,Clear,130,2013-01-11 06:55:00
1:15 AM,55.0,54.5,98,30.03,10.0,SE,5.8,-,N/A,,Clear,140,2013-01-11 07:15:00
1:35 AM,55.4,54.7,97,30.02,7.0,SE,5.8,-,N/A,,Scattered Clouds,140,2013-01-11 07:35:00
1:55 AM,55.6,55.4,99,30.02,7.0,SSE,6.9,-,N/A,,Scattered Clouds,150,2013-01-11 07:55:00
2:15 AM,55.4,55.4,100,30.02,5.0,SSE,4.6,-,N/A,,Mostly Cloudy,150,2013-01-11 08:15:00
2:35 AM,55.4,55.4,100,30.02,4.0,SSE,4.6,-,N/A,,Overcast,160,2013-01-11 08:35:00
2:55 AM,56.3,56.3,100,30.01,2.5,SSE,9.2,-,N/A,,Overcast,160,2013-01-11 08:55:00
3:15 AM,57.0,57.0,100,30.00,2.5,SSE,6.9,-,N/A,,Overcast,150,2013-01-11 09:15:00
3:35 AM,57.4,57.4,100,29.99,2.0,SSE,6.9,-,N/A,,Overcast,160,2013-01-11 09:35:00
3:55 AM,57.7,57.7,100,29.98,1.2,SSE,8.1,-,N/A,,Overcast,150,2013-01-11 09:55:00
4:35 AM,57.7,57.7,100,29.97,0.8,SSE,8.1,-,N/A,,Overcast,150,2013-01-11 10:35:00
5:15 AM,58.1,58.1,100,29.95,0.8,SSE,5.8,-,N/A,,Overcast,160,2013-01-11 11:15:00
5:35 AM,58.1,58.1,100,29.94,1.5,SSE,8.1,-,N/A,,Overcast,160,2013-01-11 11:35:00
5:55 AM,57.9,57.9,100,29.94,0.5,South,5.8,-,N/A,Fog,Fog,170,2013-01-11 11:55:00
6:15 AM,57.7,57.7,100,29.94,0.5,SSE,6.9,-,N/A,Fog,Fog,160,2013-01-11 12:15:00
6:35 AM,57.6,57.6,100,29.94,0.2,SSE,8.1,-,N/A,Fog,Fog,160,2013-01-11 12:35:00
6:55 AM,57.6,57.6,100,29.94,0.2,SSE,6.9,-,N/A,Fog,Fog,160,2013-01-11 12:55:00
7:15 AM,57.6,57.6,100,29.94,0.2,SSE,4.6,-,N/A,Rain,Rain,160,2013-01-11 13:15:00
7:35 AM,57.7,57.7,100,29.94,0.5,SSE,5.8,-,N/A,,Drizzle,160,2013-01-11 13:35:00
7:55 AM,58.1,58.1,100,29.94,0.2,SE,5.8,-,N/A,,Light Drizzle,140,2013-01-11 13:55:00
8:15 AM,58.1,58.1,100,29.94,0.2,SSE,4.6,-,N/A,,Drizzle,150,2013-01-11 14:15:00
8:35 AM,58.1,58.1,100,29.94,0.2,SSE,5.8,-,N/A,,Drizzle,150,2013-01-11 14:35:00
8:55 AM,58.3,58.3,100,29.94,0.2,SSE,5.8,-,N/A,,Drizzle,150,2013-01-11 14:55:00
9:15 AM,59.0,59.0,100,29.95,0.2,SSE,6.9,-,N/A,,Light Drizzle,160,2013-01-11 15:15:00
9:35 AM,59.5,59.5,100,29.95,0.5,SSE,4.6,-,N/A,Fog,Fog,160,2013-01-11 15:35:00
9:55 AM,59.9,59.9,100,29.95,0.8,SSE,5.8,-,N/A,,Overcast,150,2013-01-11 15:55:00
10:15 AM,60.3,60.3,100,29.93,1.5,SE,5.8,-,N/A,,Overcast,140,2013-01-11 16:15:00
10:35 AM,60.8,60.8,100,29.92,5.0,SSE,5.8,-,N/A,,Overcast,150,2013-01-11 16:35:00
10:55 AM,61.3,61.3,100,29.92,5.0,SSE,5.8,-,N/A,,Overcast,150,2013-01-11 16:55:00
11:35 AM,62.2,62.2,100,29.91,10.0,SSE,8.1,-,N/A,,Overcast,160,2013-01-11 17:35:00
11:55 AM,63.5,62.6,97,29.90,10.0,SSE,6.9,-,N/A,,Overcast,150,2013-01-11 17:55:00
12:15 PM,64.2,61.5,91,29.89,10.0,SE,4.6,-,N/A,,Overcast,140,2013-01-11 18:15:00
12:55 PM,66.4,60.8,82,29.86,10.0,SE,5.8,-,N/A,,Clear,140,2013-01-11 18:55:00
1:35 PM,69.8,60.8,73,29.83,10.0,SE,6.9,-,N/A,,Clear,140,2013-01-11 19:35:00
1:55 PM,71.8,61.2,69,29.83,10.0,South,6.9,-,N/A,,Clear,170,2013-01-11 19:55:00
2:15 PM,72.9,61.0,66,29.81,10.0,SE,8.1,-,N/A,,Clear,130,2013-01-11 20:15:00
2:35 PM,74.5,61.3,63,29.80,10.0,ESE,6.9,-,N/A,,Clear,120,2013-01-11 20:35:00
2:55 PM,76.5,61.0,59,29.79,10.0,SE,8.1,-,N/A,,Clear,140,2013-01-11 20:55:00
3:15 PM,75.9,61.0,60,29.79,10.0,SSE,8.1,-,N/A,,Clear,150,2013-01-11 21:15:00
3:35 PM,77.2,61.5,58,29.79,10.0,SSE,8.1,-,N/A,,Clear,150,2013-01-11 21:35:00
3:55 PM,76.8,61.5,59,29.79,10.0,South,4.6,-,N/A,,Clear,170,2013-01-11 21:55:00
4:15 PM,76.6,61.7,60,29.78,10.0,Calm,Calm,-,N/A,,Clear,0,2013-01-11 22:15:00
4:35 PM,75.2,61.7,63,29.78,10.0,South,3.5,-,N/A,,Clear,180,2013-01-11 22:35:00
4:55 PM,74.5,62.1,65,29.78,10.0,Calm,Calm,-,N/A,,Clear,0,2013-01-11 22:55:00
5:15 PM,74.5,62.6,66,29.78,10.0,Calm,Calm,-,N/A,,Clear,0,2013-01-11 23:15:00
5:35 PM,73.6,62.6,68,29.77,10.0,Calm,Calm,-,N/A,,Clear,0,2013-01-11 23:35:00
5:55 PM,72.0,62.6,72,29.78,10.0,Calm,Calm,-,N/A,,Clear,0,2013-01-11 23:55:00
6:15 PM,70.9,62.4,75,29.79,10.0,Calm,Calm,-,N/A,,Clear,0,2013-01-12 00:15:00
6:35 PM,69.1,62.2,79,29.79,10.0,Calm,Calm,-,N/A,,Clear,0,2013-01-12 00:35:00
6:55 PM,66.6,62.1,85,29.79,10.0,Calm,Calm,-,N/A,,Clear,0,2013-01-12 00:55:00
7:15 PM,65.7,62.1,88,29.79,10.0,Calm,Calm,-,N/A,,Clear,0,2013-01-12 01:15:00
7:35 PM,65.5,62.2,89,29.79,10.0,East,3.5,-,N/A,,Clear,90,2013-01-12 01:35:00
7:55 PM,66.0,62.2,88,29.80,10.0,East,3.5,-,N/A,,Clear,100,2013-01-12 01:55:00
8:15 PM,66.7,63.5,89,29.80,10.0,ESE,4.6,-,N/A,,Clear,120,2013-01-12 02:15:00
8:35 PM,66.7,64.0,91,29.80,7.0,ESE,3.5,-,N/A,,Clear,110,2013-01-12 02:35:00
8:55 PM,66.9,65.3,95,29.80,10.0,ESE,5.8,-,N/A,,Clear,110,2013-01-12 02:55:00
9:15 PM,67.3,66.2,96,29.80,7.0,ESE,6.9,-,N/A,,Clear,120,2013-01-12 03:15:00
9:35 PM,67.1,66.0,96,29.80,7.0,East,5.8,-,N/A,,Clear,100,2013-01-12 03:35:00
9:55 PM,66.6,65.5,96,29.80,7.0,East,5.8,-,N/A,,Clear,100,2013-01-12 03:55:00
10:15 PM,66.2,65.5,98,29.79,7.0,East,5.8,-,N/A,,Clear,100,2013-01-12 04:15:00
10:35 PM,66.0,65.7,99,29.79,7.0,ESE,9.2,-,N/A,,Clear,110,2013-01-12 04:35:00
10:55 PM,65.8,65.5,99,29.78,7.0,ESE,6.9,-,N/A,,Clear,120,2013-01-12 04:55:00
11:15 PM,66.6,66.4,99,29.78,7.0,ESE,6.9,-,N/A,,Clear,120,2013-01-12 05:15:00
11:35 PM,67.3,66.6,98,29.77,7.0,SE,9.2,-,N/A,,Clear,130,2013-01-12 05:35:00
11:55 PM,67.3,66.4,97,29.77,7.0,SE,5.8,-,N/A,,Clear,140,2013-01-12 05:55:00